JR4ZXW Weather Reports


time (UTC)temp
C
wind
direction
speed
KPH
gust
KPH
rain 1hr
cm
rain 24hr
cm
rain mn
cm
humidity
%
barometer
mb
20260508084117 21 0 0.0 0.0 0.00 0.00 0.00 51 1009.9
20260508081117 21 0 0.0 0.0 0.00 0.00 0.00 51 1009.6
20260508074117 22 0 0.0 0.0 0.00 0.00 0.00 53 1008.8
20260508071117 22 0 0.0 0.0 0.00 0.00 0.00 55 1008.1
20260508064117 22 0 0.0 0.0 0.00 0.00 0.00 56 1007.5
20260508061117 22 0 0.0 0.0 0.00 0.00 0.00 55 1007.2
20260508054117 22 0 0.0 0.0 0.00 0.00 0.00 58 1007.4
20260508051117 22 0 0.0 0.0 0.00 0.00 0.00 58 1007.5
20260508044117 22 0 0.0 0.0 0.00 0.00 0.00 59 1007.2
20260508041117 22 0 0.0 0.0 0.00 0.00 0.00 58 1006.8
20260508034117 22 0 0.0 0.0 0.00 0.00 0.00 59 1006.8
20260508031117 22 0 0.0 0.0 0.00 0.00 0.00 59 1006.9
20260508024117 22 0 0.0 0.0 0.00 0.00 0.00 59 1007.2
20260508021117 22 0 0.0 0.0 0.00 0.00 0.00 59 1007.3
20260508015517 21 0 0.0 0.0 0.00 0.00 0.00 60 1007.5
20260508013917 21 0 0.0 0.0 0.00 0.00 0.00 60 1007.6
20260508012317 21 0 0.0 0.0 0.00 0.00 0.00 61 1007.5
20260508010717 21 0 0.0 0.0 0.00 0.00 0.00 61 1007.6
20260508005917 21 0 0.0 0.0 0.00 0.00 0.00 60 1007.5
20260508005117 21 0 0.0 0.0 0.00 0.00 0.00 60 1007.5
20260508004317 21 0 0.0 0.0 0.00 0.00 0.00 61 1007.4
20260508003517 21 0 0.0 0.0 0.00 0.00 0.00 61 1007.6
20260508003117 21 0 0.0 0.0 0.00 0.00 0.00 61 1007.6
20260508002717 21 0 0.0 0.0 0.00 0.00 0.00 62 1007.7
20260508002317 21 0 0.0 0.0 0.00 0.00 0.00 62 1007.7
20260508001917 20 0 0.0 0.0 0.00 0.00 0.00 62 1007.8
20260508001717 20 0 0.0 0.0 0.00 0.00 0.00 62 1007.8
20260508001517 20 0 0.0 0.0 0.00 0.00 0.00 62 1007.8
20260508001317 20 0 0.0 0.0 0.00 0.00 0.00 62 1007.8
20260507234520 20 0 0.0 0.0 0.00 0.00 0.00 63 1008.0
20260507234320 20 0 0.0 0.0 0.00 0.00 0.00 63 1008.0
20260507234220 20 0 0.0 0.0 0.00 0.00 0.00 63 1008.0
20260507234120 20 0 0.0 0.0 0.00 0.00 0.00 63 1008.0
20260507234020 20 0 0.0 0.0 0.00 0.00 0.00 63 1008.0
20260507221250 20 0 0.0 0.0 0.00 0.00 0.00 66 1008.7
20260507214040 20 0 0.0 0.0 0.00 0.00 0.00 65 1008.5
20260507213645 20 0 0.0 0.0 0.00 0.00 0.00 65 1008.5
20260507213242 20 0 0.0 0.0 0.00 0.00 0.00 65 1008.5
20260507213041 20 0 0.0 0.0 0.00 0.00 0.00 65 1008.4
20260507212644 20 0 0.0 0.0 0.00 0.00 0.00 65 1008.4
20260507212343 20 0 0.0 0.0 0.00 0.00 0.00 65 1008.4
20260507212142 20 0 0.0 0.0 0.00 0.00 0.00 65 1008.4
20260507192200 20 0 0.0 0.0 0.00 0.00 0.00 61 1008.4
20260507185208 20 0 0.0 0.0 0.00 0.00 0.00 61 1008.3
20260507172215 20 0 0.0 0.0 0.00 0.00 0.00 61 1008.8
20260507162200 20 0 0.0 0.0 0.00 0.00 0.00 60 1009.2
20260507152200 21 0 0.0 0.0 0.00 0.00 0.00 60 1009.8
20260507142200 21 0 0.0 0.0 0.00 0.00 0.00 59 1010.1
20260507132200 21 0 0.0 0.0 0.00 0.00 0.00 59 1010.4
20260507125200 21 0 0.0 0.0 0.00 0.00 0.00 59 1010.1
20260507122200 21 0 0.0 0.0 0.00 0.00 0.00 58 1010.1
20260507115200 22 0 0.0 0.0 0.00 0.00 0.00 58 1010.2
20260507113600 22 0 0.0 0.0 0.00 0.00 0.00 58 1010.0
20260507112000 22 0 0.0 0.0 0.00 0.00 0.00 58 1009.9
20260507110400 22 0 0.0 0.0 0.00 0.00 0.00 58 1009.7
20260507104800 22 0 0.0 0.0 0.00 0.00 0.00 57 1009.7
20260507104000 22 0 0.0 0.0 0.00 0.00 0.00 57 1009.5
20260507103200 22 0 0.0 0.0 0.00 0.00 0.00 57 1009.5
20260507102400 22 0 0.0 0.0 0.00 0.00 0.00 57 1009.5
20260507101600 23 0 0.0 0.0 0.00 0.00 0.00 56 1009.5
20260507101200 23 0 0.0 0.0 0.00 0.00 0.00 56 1009.5
20260507100800 23 0 0.0 0.0 0.00 0.00 0.00 55 1009.5
20260507100400 23 0 0.0 0.0 0.00 0.00 0.00 55 1009.5
20260507100000 23 0 0.0 0.0 0.00 0.00 0.00 54 1009.4
20260507095800 23 0 0.0 0.0 0.00 0.00 0.00 54 1009.4
20260507095600 23 0 0.0 0.0 0.00 0.00 0.00 54 1009.4
20260507095400 23 0 0.0 0.0 0.00 0.00 0.00 54 1009.4
20260507095200 23 0 0.0 0.0 0.00 0.00 0.00 54 1009.4
20260507095101 23 0 0.0 0.0 0.00 0.00 0.00 54 1009.4
20260507095000 23 0 0.0 0.0 0.00 0.00 0.00 57 1009.3
20260507094900 23 0 0.0 0.0 0.00 0.00 0.00 58 1009.3